{"data":{"norad_id":28474,"intl_designator":"2004-045A","name":"GPS BIIR-13 (PRN 02)","alt_names":[],"object_type":"PAYLOAD","status":"ACTIVE","operator":null,"country":"US","launch_date":"2004-11-06","launch_site_code":"AFETR","launch_vehicle":null,"mission":null,"orbit_class":"UNKNOWN","rcs_meters":2.5118,"size_class":null,"mass_kg":null,"dimensions":null,"purposes":["earth_obs","nav"],"wikipedia_slug":null,"has_3d_model":false,"image_url":null,"decayed_at":null,"tle_current":{"epoch":"2026-09-19T12:13:04.923264Z","epoch_age_seconds":103805,"freshness":"FRESH","line1":"1 28474U 04045A   26262.50908476 -.00000071  00000+0  00000+0 0  9992","line2":"2 28474  55.0745 321.0917 0172338 318.7395  22.2982  2.00560146160316","mean_motion":2.00560146,"eccentricity":0.0172338,"inclination_deg":55.0745,"raan_deg":321.0917,"arg_perigee_deg":318.7395,"mean_anomaly_deg":22.2982,"bstar":0,"rev_number":16031,"period_min":717.98910637012,"perigee_km":19724.775130256,"apogee_km":20640.257097525,"semimajor_km":26560.65311389,"source":"CELESTRAK","updated_at":"2026-09-20T09:00:46.084925Z"}}}